Flag for U.S.A. Weather past 2 weeks in Tallahassee, Florida, U.S.A.

Now
42 °F

Clear.


Feels Like: 42 °F
Forecast: 39 / 65 °F
Wind: No wind

Location: Tallahassee Regional Airport

Current Time: Dec 18, 2014 at 5:33:18 AM

Latest Report: Dec 18, 2014 at 4:53 AM


Visibility: 10 mi

Pressure: 30.14 "Hg

Humidity: 82%

Dew point: 37 °F

Location of TallahasseeLocation

Historic Weather in Tallahassee — Graph

°F

Tallahassee temperature yesterday

Maximum temperature yesterday: 64 °F (at 1:53 PM)
Minimum temperature yesterday: 36 °F (at 7:53 AM)
Average temperature yesterday: 49 °F

Past Weeks' High & Low Weather Summary

 TemperatureHumidityPressure
High80 °F (Dec 3, 1:53 PM)93% (Dec 16, 3:53 AM)30.33 "Hg (Dec 16, 3:53 AM)
Low30 °F (Dec 12, 6:53 AM)18% (Dec 12, 2:53 PM)30.03 "Hg (Dec 16, 2:53 PM)
Average53 °F69%30.17 "Hg
* Reported Dec 3 4:01 AM — Dec 18 3:53 AM, Tallahassee, Weather by CustomWeather, © 2014

Note: Actual official high and low records may vary slightly from our data, if they occured in-between our weather recording intervals... More about our weather records

Advertising

Tallahassee weather history for previous 24 hours

 ConditionsComfort  
Time TempWeatherWind HumidityBarometerVisibility
3:53 AM
Dec 18
42 °FClear.No wind82%30.15 "Hg10 mi
2:53 AM40 °FClear.No wind83%30.15 "Hg10 mi
1:53 AM39 °FClear.No wind86%30.15 "Hg10 mi
12:53 AM41 °FClear.No wind86%30.15 "Hg10 mi
11:53 PM
Dec 17
42 °FClear.No wind82%30.16 "Hg10 mi
10:53 PM41 °FPassing clouds.No wind86%30.17 "Hg10 mi
9:53 PM43 °FPassing clouds.No wind82%30.18 "Hg10 mi
8:53 PM46 °FPassing clouds.No wind77%30.18 "Hg10 mi
7:53 PM50 °FPassing clouds.No wind71%30.17 "Hg10 mi
6:53 PM57 °FPassing clouds.3 mph60%30.16 "Hg10 mi
5:53 PM56 °FPassing clouds.No wind62%30.13 "Hg10 mi
4:53 PM63 °FPartly sunny.6 mph45%30.13 "Hg10 mi
3:53 PM64 °FPartly sunny.6 mph43%30.13 "Hg10 mi
2:53 PM64 °FPartly sunny.3 mph41%30.13 "Hg10 mi
1:53 PM64 °FPassing clouds.7 mph41%30.16 "Hg10 mi
12:53 PM62 °FScattered clouds.3 mph43%30.17 "Hg10 mi
11:53 AM59 °FPassing clouds.No wind48%30.21 "Hg10 mi
10:53 AM56 °FPassing clouds.3 mph53%30.24 "Hg10 mi
9:53 AM52 °FPassing clouds.5 mph61%30.24 "Hg10 mi
8:53 AM43 °FPassing clouds.No wind82%30.24 "Hg10 mi
7:53 AM36 °FPassing clouds.No wind85%30.21 "Hg10 mi
6:53 AM37 °FClear.No wind86%30.20 "Hg10 mi
5:53 AM37 °FClear.3 mph86%30.20 "Hg10 mi
Weather by CustomWeather, © 2014

See weather overviewHow to use our weather pages